{"data":{"norad_id":57651,"intl_designator":"2023-122V","name":"STARLINK-30294","alt_names":[],"object_type":"PAYLOAD","status":"ACTIVE","operator":null,"country":"US","launch_date":"2023-08-17","launch_site_code":"AFETR","launch_vehicle":null,"mission":null,"orbit_class":"UNKNOWN","rcs_meters":null,"size_class":null,"mass_kg":null,"dimensions":null,"purposes":["comms"],"wikipedia_slug":null,"has_3d_model":false,"image_url":null,"decayed_at":null,"tle_current":{"epoch":"2026-09-20T04:05:00.932352Z","epoch_age_seconds":160195,"freshness":"FRESH","line1":"1 57651U 23122V   26263.17014968  .00001749  00000+0  73037-4 0  9993","line2":"2 57651  43.0053  62.8681 0002013 269.9159  90.1462 15.27590509172082","mean_motion":15.27590509,"eccentricity":0.0002013,"inclination_deg":43.0053,"raan_deg":62.8681,"arg_perigee_deg":269.9159,"mean_anomaly_deg":90.1462,"bstar":7.3037e-5,"rev_number":17208,"period_min":94.266100209189,"perigee_km":481.63647806675,"apogee_km":484.39877892018,"semimajor_km":6861.1546284935,"source":"CELESTRAK","updated_at":"2026-09-21T09:00:33.668983Z"}}}